Погода в Юрасовом Хуторе

Россия / Брянская область     52°08′21″N   34°31′18″E
темп.,
°C
ветер,
м/с
пор.,
м/с
влажн.,
%
обл.,
%
осадки,
мм/ч
давл.,
гПа
погр.,
м
15 августа, пн
пн1500:00+20в51266100 0.0 1016270
03:00+20в41158100 0.0 1016267
06:00+16всв41079100 0.8 1016165
09:00+22всв5106489 0.8 1016344
12:00+28в6944100 0.0 1016981
15:00+29в6943100 0.0 10151297
18:00+26всв51151100 0.0 1015289
21:00+25всв61449100 0.0 1014493
16 августа, вт
вт1600:00+22св41254100 0.1 1015348
03:00+22в51349100 0.1 1014384
06:00+22в71450100 0.0 1013444
09:00+22вюв61355100 0.0 1015496
12:00+24в6124584 0.0 1015594
15:00+27в61042100 0.0 1014942
18:00+26в61243100 0.0 1014498
21:00+24всв61438100 0.0 1014443
17 августа, ср
ср1700:00+22всв5124398 0.0 1013301
03:00+22в41245100 0.0 1012371
06:00+21всв4950100 0.0 1011185
09:00+21в41161100 0.1 1012452
12:00+25вюв71253100 0.1 1013743
15:00+28вюв794190 0.1 10121348
18:00+25всв5105598 0.0 1013431
21:00+23в6154490 0.0 1012470
18 августа, чт
чт1800:00+21всв41053100 0.0 1013260
03:00+21св5114725 0.0 1012296
06:00+19св5125473 0.0 1013314
09:00+24всв6145211 0.0 1013673
12:00+28всв8113820 0.0 10121260
15:00+27св7104149 0.0 10131162
18:00+22св71358100 0.1 1012381
21:00+23св6145320 0.1 1012410
19 августа, пт
пт1900:00+21всв5135611 0.0 1013330
03:00+19всв5126210 0.0 1013308
06:00+18всв5126766 0.0 1014354
09:00+22всв7106357 0.0 1014725
12:00+25всв675629 0.0 10141439
15:00+26св665341 0.0 10131411
18:00+23ссв57755 1.3 1013442
21:00+18ссв49955 4.1 1014230